AMU657 RCKH-VMMC

Flight info

Callsign AMU657
Flight time 0h 32m
Altitude 34000
Route PARAS2A PARAS T7 WP521 G581 ELATO J101 SMT
Aircraft A321/M-SDE3FGHIRWY/LB1

Departure

Time 2026-04-28 20:58
Airport Kaohsiung International Airport (RCKH)

Arrival

Time 2026-04-28 21:30
Airport Macau International Airport (VMMC)
Time Latitude Longitude Altitude Speed Heading
2026-04-28 20:53 22.57326 120.33967 38 ft 0 kts 271°
2026-04-28 20:53 22.57326 120.33968 38 ft 0 kts 271°
2026-04-28 20:53 22.57326 120.33967 39 ft 0 kts 271°
2026-04-28 20:55 22.57325 120.34014 38 ft 8 kts 271°
2026-04-28 20:55 22.57314 120.34051 37 ft 0 kts 359°
2026-04-28 20:56 22.57328 120.34051 38 ft 7 kts
2026-04-28 20:56 22.57407 120.34005 38 ft 17 kts 289°
2026-04-28 20:56 22.57416 120.33821 38 ft 32 kts 271°
2026-04-28 20:56 22.57479 120.33629 38 ft 26 kts 322°
2026-04-28 20:57 22.57619 120.33506 37 ft 26 kts 335°
2026-04-28 20:57 22.57748 120.33575 38 ft 23 kts 81°
2026-04-28 20:57 22.57743 120.33837 39 ft 63 kts 92°
2026-04-28 20:57 22.57721 120.34562 39 ft 126 kts 92°
2026-04-28 20:58 22.57685 120.35698 51 ft 172 kts 91°
2026-04-28 20:58 22.57650 120.36972 706 ft 167 kts 92°
2026-04-28 20:58 22.57330 120.38159 1280 ft 166 kts 128°
2026-04-28 20:58 22.56393 120.38855 1713 ft 171 kts 163°
2026-04-28 20:59 22.55133 120.38789 1894 ft 198 kts 197°
2026-04-28 20:59 22.54007 120.37778 2035 ft 232 kts 239°
2026-04-28 20:59 22.53477 120.36033 2327 ft 258 kts 254°
2026-04-28 20:59 22.53121 120.34079 2839 ft 269 kts 257°
2026-04-28 21:00 22.52819 120.32068 3579 ft 272 kts 258°
2026-04-28 21:00 22.52527 120.30046 4372 ft 272 kts 258°
2026-04-28 21:00 22.52225 120.28025 5123 ft 272 kts 257°
2026-04-28 21:00 22.51909 120.26009 5885 ft 272 kts 257°
2026-04-28 21:01 22.51580 120.23995 6623 ft 272 kts 257°
2026-04-28 21:01 22.51244 120.21985 7320 ft 272 kts 257°
2026-04-28 21:01 22.50903 120.19969 7992 ft 273 kts 257°
2026-04-28 21:01 22.50558 120.17946 8681 ft 275 kts 257°
2026-04-28 21:02 22.50210 120.15908 9339 ft 276 kts 258°
2026-04-28 21:02 22.49863 120.13860 9992 ft 278 kts 258°
2026-04-28 21:02 22.49504 120.11753 10245 ft 295 kts 258°
2026-04-28 21:02 22.49120 120.09499 10370 ft 315 kts 258°
2026-04-28 21:03 22.48707 120.07101 10495 ft 333 kts 258°
2026-04-28 21:03 22.48269 120.04576 10614 ft 351 kts 258°
2026-04-28 21:03 22.47812 120.01941 10890 ft 361 kts 258°
2026-04-28 21:03 22.47351 119.99251 11376 ft 365 kts 258°
2026-04-28 21:04 22.46890 119.96544 11908 ft 368 kts 258°
2026-04-28 21:04 22.46584 119.94741 12259 ft 369 kts 258°
2026-04-28 21:04 22.46118 119.92004 12814 ft 371 kts 258°
2026-04-28 21:04 22.45649 119.89253 13373 ft 373 kts 258°
2026-04-28 21:05 22.45172 119.86485 13908 ft 376 kts 258°
2026-04-28 21:05 22.44691 119.83703 14386 ft 378 kts 258°
2026-04-28 21:05 22.44203 119.80898 14894 ft 380 kts 258°
2026-04-28 21:05 22.43714 119.78086 15399 ft 382 kts 258°
2026-04-28 21:06 22.43223 119.75251 15890 ft 385 kts 258°
2026-04-28 21:06 22.41406 119.64813 17602 ft 394 kts 258°
2026-04-28 21:06 22.39352 119.53006 19148 ft 405 kts 259°
2026-04-28 21:06 22.37241 119.40910 20513 ft 414 kts 259°
2026-04-28 21:07 22.35066 119.28562 21755 ft 423 kts 259°
2026-04-28 21:07 22.32833 119.15938 22893 ft 432 kts 259°
2026-04-28 21:07 22.30548 119.03074 23927 ft 440 kts 259°
2026-04-28 21:07 22.28215 118.89994 24890 ft 446 kts 259°
2026-04-28 21:08 22.27052 118.77143 25854 ft 451 kts 274°
2026-04-28 21:08 22.27811 118.62966 26775 ft 458 kts 271°
2026-04-28 21:08 22.28484 118.49522 28136 ft 453 kts 272°
2026-04-28 21:08 22.29191 118.35991 29437 ft 450 kts 271°
2026-04-28 21:09 22.29870 118.22582 30668 ft 445 kts 271°
2026-04-28 21:09 22.30516 118.09287 31830 ft 440 kts 271°
2026-04-28 21:09 22.31159 117.96160 33020 ft 435 kts 271°
2026-04-28 21:09 22.31796 117.83126 33972 ft 435 kts 270°
2026-04-28 21:10 22.33018 117.57192 33796 ft 435 kts 270°
2026-04-28 21:10 22.37248 117.31625 33966 ft 431 kts 279°
2026-04-28 21:11 22.42609 117.06212 33990 ft 432 kts 279°
2026-04-28 21:11 22.47901 116.80866 33814 ft 436 kts 279°
2026-04-28 21:12 22.50013 116.55318 33842 ft 425 kts 264°
2026-04-28 21:12 22.49328 116.42511 33947 ft 424 kts 264°
2026-04-28 21:12 22.48610 116.29694 34003 ft 424 kts 264°
2026-04-28 21:13 22.47139 116.04008 33893 ft 431 kts 264°
2026-04-28 21:13 22.45600 115.78310 33791 ft 431 kts 264°
2026-04-28 21:14 22.44047 115.52770 33806 ft 428 kts 265°
2026-04-28 21:14 22.42437 115.27049 33887 ft 427 kts 265°
2026-04-28 21:15 22.40802 115.01191 33989 ft 429 kts 265°
2026-04-28 21:15 22.39084 114.75272 33918 ft 435 kts 265°
2026-04-28 21:16 22.37342 114.49432 33822 ft 433 kts 265°
2026-04-28 21:16 22.35555 114.23654 33711 ft 432 kts 265°
2026-04-28 21:17 22.34646 114.10781 33556 ft 430 kts 265°
2026-04-28 21:17 22.33610 113.98539 32480 ft 400 kts 255°
2026-04-28 21:17 22.32662 113.95754 31920 ft 392 kts 243°
2026-04-28 21:17 22.31427 113.93134 30919 ft 390 kts 251°
2026-04-28 21:18 22.30887 113.90303 29958 ft 385 kts 265°
2026-04-28 21:18 22.31122 113.87376 28128 ft 402 kts 284°
2026-04-28 21:18 22.32270 113.84557 26330 ft 420 kts 301°
2026-04-28 21:18 22.34245 113.82157 24569 ft 439 kts 317°
2026-04-28 21:19 22.36907 113.80437 22886 ft 453 kts 334°
2026-04-28 21:19 22.39985 113.79615 21169 ft 462 kts 352°
2026-04-28 21:19 22.43199 113.79797 19740 ft 464 kts
2026-04-28 21:19 22.46277 113.80605 18972 ft 442 kts
2026-04-28 21:20 22.49183 113.80591 18770 ft 398 kts 342°
2026-04-28 21:20 22.51591 113.79514 18652 ft 357 kts 323°
2026-04-28 21:20 22.53544 113.78008 18280 ft 336 kts 316°
2026-04-28 21:20 22.55245 113.76339 17574 ft 326 kts 309°
2026-04-28 21:21 22.56695 113.74501 16818 ft 317 kts 301°
2026-04-28 21:21 22.57803 113.72483 16080 ft 308 kts 291°
2026-04-28 21:21 22.58526 113.70335 15335 ft 301 kts 281°
2026-04-28 21:21 22.58861 113.68126 14616 ft 295 kts 271°
2026-04-28 21:22 22.58838 113.65926 13917 ft 291 kts 263°
2026-04-28 21:22 22.58493 113.63787 13158 ft 287 kts 254°
2026-04-28 21:22 22.57844 113.61758 12396 ft 284 kts 246°
2026-04-28 21:22 22.57255 113.60499 11896 ft 283 kts 240°
2026-04-28 21:23 22.55716 113.58211 10921 ft 281 kts 229°
2026-04-28 21:23 22.54300 113.56769 10225 ft 280 kts 220°
2026-04-28 21:23 22.52690 113.55591 9517 ft 280 kts 211°
2026-04-28 21:23 22.50923 113.54704 8760 ft 280 kts 202°
2026-04-28 21:24 22.49050 113.54133 8030 ft 280 kts 193°
2026-04-28 21:24 22.47144 113.53897 7322 ft 280 kts 184°
2026-04-28 21:24 22.45199 113.53994 6623 ft 281 kts 175°
2026-04-28 21:24 22.43287 113.54426 5912 ft 281 kts 166°
2026-04-28 21:25 22.41461 113.55178 5184 ft 282 kts 157°
2026-04-28 21:25 22.39763 113.56234 4459 ft 281 kts 150°
2026-04-28 21:25 22.38127 113.57379 3731 ft 279 kts 150°
2026-04-28 21:25 22.36516 113.58503 3232 ft 268 kts 150°
2026-04-28 21:26 22.34984 113.59570 3055 ft 258 kts 150°
2026-04-28 21:26 22.33508 113.60598 2979 ft 249 kts 150°
2026-04-28 21:26 22.32066 113.61600 2805 ft 242 kts 150°
2026-04-28 21:26 22.30670 113.62540 2677 ft 232 kts 156°
2026-04-28 21:27 22.29167 113.63043 2562 ft 224 kts 176°
2026-04-28 21:27 22.27631 113.62974 2408 ft 221 kts 194°
2026-04-28 21:27 22.26233 113.62355 2137 ft 217 kts 213°
2026-04-28 21:27 22.25004 113.61449 1886 ft 208 kts 214°
2026-04-28 21:28 22.23875 113.60621 1731 ft 182 kts 214°
2026-04-28 21:28 22.22935 113.59901 1624 ft 156 kts 216°
2026-04-28 21:28 22.22072 113.59262 1312 ft 146 kts 213°
2026-04-28 21:28 22.21238 113.58653 1032 ft 143 kts 212°
2026-04-28 21:29 22.20360 113.58181 857 ft 143 kts 197°
2026-04-28 21:29 22.19382 113.57954 644 ft 143 kts 189°
2026-04-28 21:29 22.18387 113.57954 513 ft 144 kts 173°
2026-04-28 21:29 22.17421 113.58229 319 ft 143 kts 164°
2026-04-28 21:30 22.16473 113.58581 164 ft 144 kts 162°
2026-04-28 21:30 22.15534 113.58927 34 ft 134 kts 163°
2026-04-28 21:30 22.14837 113.59183 29 ft 66 kts 161°
2026-04-28 21:30 22.14609 113.59226 29 ft 20 kts 226°
2026-04-28 21:31 22.14592 113.59089 28 ft 18 kts 303°
2026-04-28 21:31 22.14710 113.59042 29 ft 21 kts 333°
2026-04-28 21:31 22.14814 113.58899 29 ft 31 kts 303°
2026-04-28 21:31 22.14935 113.58701 29 ft 32 kts 303°
2026-04-28 21:32 22.15057 113.58501 29 ft 32 kts 303°
2026-04-28 21:32 22.15182 113.58299 29 ft 33 kts 304°
2026-04-28 21:32 22.15307 113.58095 29 ft 33 kts 304°
2026-04-28 21:32 22.15434 113.57890 29 ft 33 kts 303°
2026-04-28 21:33 22.15561 113.57685 29 ft 33 kts 304°
2026-04-28 21:33 22.15683 113.57534 29 ft 10 kts 314°
2026-04-28 21:33 22.15693 113.57523 29 ft 0 kts 315°